Wind_Speed
14 13 12 12 11 10 10 9 9 9 8 8 8 9 9 9 9 9 9 9 9 9 9 10 10 10 10 10 10 11 11 11 11 12 12 13 13 14 14 14 15 15 15
16 15 14 13 13 12 12 11 11 10 10 10 10 10 10 10 10 10 10 10 11 11 11 11 11 11 11 11 11 12 12 13 13 14 14 15 15 15 16 16 16 17 17
18 17 17 16 15 14 13 13 12 12 12 12 11 11 11 11 11 12 12 12 12 12 12 12 12 12 12 12 12 12 13 14 14 15 15 15 16 16 17 17 18 18 19
19 19 19 18 17 16 16 15 14 14 14 13 13 13 13 13 13 13 13 14 14 13 13 13 13 13 13 13 13 13 14 14 15 15 16 16 17 17 18 18 19 19 20
21 21 20 19 19 18 17 17 16 16 15 15 15 14 14 14 14 14 14 14 14 15 14 14 14 14 14 14 15 15 15 16 16 17 17 18 18 19 19 20 20 20 21
24 23 22 21 20 20 19 18 18 17 17 16 16 16 16 15 15 15 15 15 15 15 16 15 15 15 16 16 16 16 16 17 17 18 19 19 20 20 21 21 21 21 21
25 25 24 23 22 22 21 20 19 19 18 18 17 17 17 16 16 16 16 16 16 16 16 17 17 17 17 17 17 17 17 18 18 19 19 20 21 22 22 22 23 23 23
27 27 26 25 24 24 23 22 21 20 19 19 18 18 18 18 17 17 17 17 17 17 17 17 17 17 17 18 18 18 18 19 19 20 21 22 23 23 23 24 24 24 24
30 29 28 27 26 26 25 24 23 22 21 21 20 19 19 19 19 19 19 19 19 19 19 18 18 18 19 19 19 20 20 21 21 22 23 23 24 24 25 25 26 26 26
32 31 31 30 29 27 27 25 25 24 23 22 22 21 20 20 20 20 20 20 20 20 20 20 20 20 20 20 21 21 22 22 23 24 25 25 25 26 26 27 27 27 28
33 33 32 32 30 29 28 27 27 26 25 24 23 23 22 22 22 21 21 21 21 21 21 21 21 21 21 21 22 23 23 24 25 25 26 26 27 27 28 28 29 29 30
35 34 34 33 32 31 30 29 28 28 27 26 25 24 24 23 23 23 23 23 23 22 22 22 22 22 22 22 23 24 24 25 26 26 27 27 28 29 29 30 31 31 31
37 36 36 35 34 33 32 31 30 29 28 27 27 26 26 25 25 24 24 24 24 24 24 23 23 23 23 24 24 25 25 26 27 28 28 29 30 30 31 31 32 32 33
39 38 37 36 35 34 34 33 32 31 30 29 28 28 27 26 26 25 25 25 25 25 25 24 24 24 25 25 26 26 27 28 29 29 29 30 31 32 32 32 33 34 34
41 40 39 38 37 36 35 34 34 33 32 31 30 29 29 28 27 27 27 26 26 26 25 25 25 26 26 27 28 28 29 29 30 30 31 31 32 33 33 34 34 35 36
42 41 40 39 38 37 37 36 35 34 33 32 31 30 30 30 29 29 28 27 27 27 26 26 26 27 28 28 29 30 30 30 31 31 32 33 33 34 34 35 35 36 37
43 42 41 40 39 38 38 37 36 35 34 33 32 31 31 31 31 30 30 29 28 28 28 28 28 29 29 29 30 30 31 32 32 33 33 34 34 35 35 36 36 37 38
43 43 43 42 41 40 39 38 38 37 36 35 34 33 33 32 32 32 31 30 30 30 30 29 29 30 30 31 31 31 32 32 33 34 34 35 35 36 36 37 38 38 39
44 44 43 43 42 41 40 39 39 38 38 36 35 34 34 33 33 33 32 31 31 30 31 31 31 31 31 32 32 32 33 34 34 34 35 36 36 37 37 38 39 39 41
45 45 45 44 43 43 42 41 40 39 38 37 36 35 35 34 34 34 33 32 32 31 31 31 32 32 33 33 33 33 34 34 35 36 36 37 37 38 38 39 40 41 42
46 46 45 45 44 44 44 43 42 40 39 38 37 37 36 35 35 34 34 34 33 33 33 33 33 34 34 34 34 34 34 35 35 36 37 38 39 39 40 41 42 42 43
47 46 46 46 45 45 44 44 43 41 40 40 39 38 37 37 36 35 35 35 34 34 34 34 34 34 35 35 35 35 35 36 36 37 38 39 40 41 42 42 42 43 44
47 47 46 46 46 45 44 44 43 42 41 40 39 39 38 38 37 36 36 35 35 35 35 35 35 35 35 36 36 36 37 37 37 37 38 40 41 42 42 42 42 43 44
47 46 46 46 46 46 45 44 42 42 41 41 40 40 40 39 39 38 37 36 36 36 35 35 36 36 36 37 37 38 38 38 38 38 39 40 41 41 42 42 42 43 44
47 47 47 47 46 46 45 44 43 42 42 42 42 41 40 40 40 39 38 38 37 36 36 36 37 37 37 37 38 38 38 39 40 40 40 40 40 41 41 42 42 43 44
46 46 47 47 47 46 46 45 44 43 43 43 42 41 42 41 41 40 40 39 38 37 37 37 37 37 38 38 38 39 40 40 41 41 40 39 39 39 40 42 43 43 44
Wind_Direction
230 230 230 230 231 232 234 235 238 242 244 247 251 257 264 270 275 280 285 288 292 294 296 297 297 299 300 300 300 301 302 301 301 302 303 304 304 306 308 308 308 306 304
231 231 232 233 234 235 238 239 240 242 246 249 254 259 265 270 274 279 283 287 290 292 293 294 294 296 299 300 301 301 300 299 299 299 300 300 301 303 305 305 305 303 302
232 233 233 233 235 238 240 241 242 244 247 252 256 261 265 269 272 277 280 285 288 290 292 293 293 295 297 299 302 303 301 298 298 299 300 300 301 303 303 304 303 301 300
234 235 234 235 236 238 242 243 244 246 249 252 256 259 263 267 271 275 278 282 284 287 290 291 291 293 294 296 298 300 300 300 300 300 300 300 301 303 303 303 303 301 300
235 236 236 235 237 239 242 244 245 247 250 253 256 259 263 266 270 274 276 279 281 283 286 288 289 291 293 295 297 297 298 299 299 299 299 300 301 302 302 302 302 301 301
237 237 237 236 237 239 242 245 247 248 251 254 257 259 263 266 269 272 275 277 279 281 283 284 286 288 291 294 295 296 297 297 297 297 298 299 300 301 301 301 301 301 300
237 238 237 238 238 240 242 245 247 249 251 254 256 260 263 266 269 272 274 276 278 280 281 283 284 287 289 292 293 295 295 295 295 296 297 298 299 300 300 301 300 300 299
238 239 239 238 240 241 243 245 247 249 251 253 256 259 263 267 269 271 273 276 278 279 281 283 284 286 288 290 291 293 294 294 295 296 297 298 299 299 299 299 299 299 298
237 238 239 239 240 242 243 245 247 249 251 253 256 259 263 266 269 271 272 275 277 279 281 282 283 285 288 289 290 292 293 293 294 294 296 297 298 299 298 298 298 297 296
238 239 238 239 240 242 243 245 247 249 250 253 256 258 262 265 268 270 272 274 276 279 281 282 283 284 286 288 289 291 292 293 294 295 295 296 297 297 297 297 297 296 295
238 239 239 239 241 242 244 245 247 248 250 252 255 258 261 264 267 269 271 273 276 278 280 282 283 284 286 287 289 291 293 294 294 295 295 295 295 296 296 296 296 296 295
238 239 240 239 240 242 243 245 247 248 250 252 254 257 260 263 265 268 270 273 275 277 279 281 283 283 285 287 289 291 293 294 294 295 295 294 294 294 295 295 295 295 294
237 238 240 240 240 242 243 244 247 248 249 252 254 257 260 262 264 267 269 271 274 276 278 280 281 283 284 286 289 291 293 294 294 295 295 295 294 294 295 295 295 295 294
237 238 239 240 241 242 242 244 246 247 250 252 254 257 259 262 264 266 268 270 273 275 277 279 281 282 284 286 289 290 292 293 294 294 294 294 294 294 294 295 295 295 294
237 238 239 240 241 242 243 244 246 248 250 252 255 256 259 261 263 265 267 270 272 274 276 278 280 281 283 285 288 290 292 293 293 294 294 294 294 294 294 295 296 296 295
236 238 239 240 241 241 242 244 246 248 250 252 253 255 258 260 261 263 266 267 270 272 275 276 279 281 283 285 288 290 291 292 293 293 293 294 294 294 294 295 295 296 296
236 237 238 240 240 241 242 243 245 247 250 252 254 256 258 260 260 262 264 265 268 271 273 275 278 280 283 286 288 290 292 292 292 292 293 294 295 294 295 295 296 296 296
235 237 238 239 240 241 242 244 245 247 249 252 253 255 257 259 260 261 263 264 266 270 272 275 278 281 283 286 289 291 292 293 293 293 294 294 294 295 295 296 296 296 296
235 236 237 239 240 241 242 244 245 246 248 251 253 255 257 258 259 261 262 264 267 270 272 274 278 281 284 286 288 291 292 293 293 294 294 294 294 295 296 296 297 297 297
235 236 237 239 240 241 242 244 245 247 249 251 253 254 256 257 258 260 262 264 266 269 272 274 277 280 283 285 287 290 291 293 294 295 295 294 295 295 296 297 297 298 298
235 236 237 238 239 241 242 243 245 247 249 251 252 253 255 256 258 260 262 264 266 268 271 274 277 280 282 284 286 288 290 292 293 294 295 295 296 296 297 297 297 298 298
236 236 237 238 240 241 242 243 245 247 248 250 252 253 254 256 258 260 262 264 266 268 271 274 277 279 281 283 285 287 289 291 293 293 295 296 296 297 297 297 298 298 298
236 236 237 239 240 241 242 244 245 246 248 250 252 254 255 256 258 260 262 264 266 269 271 274 276 278 280 283 285 286 289 291 292 293 295 296 297 298 297 298 299 299 300
235 235 236 238 240 241 243 244 246 247 249 250 252 254 255 257 258 261 263 265 267 269 271 274 276 278 280 282 284 287 289 291 292 293 295 297 297 297 298 299 300 301 301
236 236 236 238 239 241 243 245 246 247 248 250 251 253 255 257 259 261 263 265 267 269 271 274 276 278 279 282 284 287 288 291 292 293 295 296 297 298 299 300 301 302 303
237 237 237 238 239 241 243 244 246 246 248 250 251 253 255 257 259 261 263 264 266 268 270 273 276 278 279 282 284 286 288 290 292 293 295 295 296 298 300 301 302 303 304
Height
5872 5872 5873 5874 5875 5876 5877 5877 5878 5879 5879 5880 5880 5881 5881 5881 5881 5881 5881 5881 5881 5880 5880 5879 5879 5878 5878 5877 5876 5876 5875 5874 5873 5872 5871 5870 5869 5868 5867 5865 5864 5863 5861
5869 5871 5872 5873 5873 5874 5875 5876 5877 5878 5878 5879 5879 5879 5880 5880 5880 5880 5880 5880 5879 5879 5878 5878 5877 5877 5876 5875 5875 5874 5873 5872 5871 5870 5869 5868 5867 5866 5864 5863 5862 5860 5859
5867 5868 5869 5870 5872 5872 5873 5874 5875 5876 5877 5877 5877 5878 5878 5878 5878 5878 5878 5878 5878 5877 5877 5876 5876 5875 5874 5873 5873 5872 5871 5870 5869 5868 5867 5866 5865 5863 5862 5860 5859 5857 5856
5864 5865 5867 5868 5869 5870 5871 5872 5873 5874 5875 5875 5876 5876 5876 5876 5876 5876 5876 5876 5876 5875 5875 5874 5874 5873 5872 5872 5871 5870 5869 5868 5867 5866 5865 5863 5862 5860 5859 5857 5856 5854 5852
5861 5862 5864 5865 5866 5867 5869 5870 5871 5872 5872 5873 5873 5874 5874 5874 5874 5874 5874 5874 5874 5873 5873 5872 5872 5871 5870 5870 5869 5868 5867 5865 5864 5863 5862 5860 5859 5858 5856 5854 5853 5851 5849
5857 5858 5860 5862 5863 5864 5866 5867 5868 5869 5870 5870 5871 5871 5872 5872 5872 5872 5872 5871 5871 5871 5870 5870 5869 5868 5868 5867 5866 5865 5864 5863 5862 5860 5859 5857 5856 5854 5853 5851 5849 5847 5845
5852 5854 5856 5858 5859 5861 5862 5864 5865 5866 5867 5868 5868 5869 5869 5869 5869 5869 5869 5869 5868 5868 5867 5867 5866 5866 5865 5864 5863 5862 5861 5860 5858 5857 5856 5854 5853 5851 5849 5847 5845 5843 5841
5848 5850 5852 5854 5856 5857 5859 5860 5861 5863 5864 5864 5865 5865 5866 5866 5866 5866 5866 5866 5866 5865 5865 5864 5863 5863 5862 5861 5860 5859 5858 5856 5855 5854 5852 5851 5849 5847 5845 5843 5841 5839 5837
5843 5845 5847 5849 5851 5853 5854 5856 5858 5859 5860 5861 5862 5862 5863 5863 5863 5863 5863 5863 5862 5862 5861 5861 5860 5860 5859 5857 5856 5855 5854 5853 5851 5850 5848 5847 5845 5843 5841 5839 5837 5835 5833
5837 5839 5842 5844 5846 5848 5850 5852 5853 5855 5856 5857 5858 5858 5859 5859 5859 5859 5859 5859 5859 5858 5858 5857 5857 5856 5855 5854 5853 5852 5850 5849 5847 5846 5844 5842 5840 5838 5836 5834 5832 5830 5828
5831 5834 5836 5839 5841 5843 5845 5847 5849 5850 5851 5853 5853 5854 5855 5855 5855 5855 5855 5855 5855 5854 5854 5853 5853 5852 5851 5850 5849 5848 5846 5845 5843 5841 5839 5837 5835 5833 5831 5829 5827 5824 5822
5825 5828 5831 5833 5835 5838 5840 5842 5844 5845 5846 5848 5849 5850 5851 5851 5851 5851 5851 5851 5851 5850 5850 5849 5849 5848 5847 5846 5845 5843 5842 5840 5838 5836 5834 5832 5830 5828 5825 5823 5821 5819 5816
5819 5821 5824 5827 5830 5832 5834 5836 5838 5840 5841 5843 5844 5845 5846 5846 5847 5847 5847 5847 5846 5846 5846 5845 5844 5843 5842 5841 5840 5838 5837 5835 5833 5831 5829 5826 5824 5822 5819 5817 5815 5812 5810
5811 5814 5818 5821 5823 5826 5828 5830 5832 5834 5836 5837 5838 5840 5840 5841 5842 5842 5842 5842 5842 5841 5841 5840 5840 5839 5838 5836 5835 5833 5831 5829 5827 5825 5823 5820 5818 5816 5813 5811 5808 5805 5803
5804 5807 5810 5814 5817 5819 5822 5824 5826 5828 5830 5831 5833 5834 5835 5836 5836 5836 5837 5837 5837 5836 5836 5835 5835 5834 5833 5831 5830 5828 5826 5824 5821 5819 5817 5814 5812 5809 5806 5804 5801 5798 5795
5796 5800 5803 5806 5810 5812 5815 5817 5819 5821 5823 5825 5826 5828 5829 5830 5830 5831 5831 5831 5831 5831 5831 5830 5829 5828 5827 5826 5824 5822 5820 5818 5815 5813 5810 5808 5805 5802 5799 5796 5794 5791 5788
5788 5792 5795 5799 5802 5805 5808 5810 5812 5815 5817 5818 5820 5821 5823 5824 5824 5825 5825 5825 5825 5825 5825 5824 5823 5822 5821 5820 5818 5816 5814 5811 5809 5806 5804 5801 5798 5795 5792 5789 5786 5783 5780
5779 5783 5787 5791 5794 5798 5800 5802 5805 5807 5810 5811 5813 5814 5816 5817 5818 5818 5819 5819 5819 5819 5819 5818 5817 5816 5815 5813 5811 5809 5807 5805 5802 5799 5797 5794 5791 5788 5785 5781 5778 5775 5771
5770 5775 5779 5782 5786 5789 5792 5795 5797 5800 5802 5804 5806 5807 5809 5810 5811 5811 5812 5812 5813 5812 5812 5812 5811 5810 5808 5807 5805 5803 5800 5798 5795 5792 5789 5786 5783 5780 5777 5774 5770 5766 5762
5761 5765 5769 5773 5777 5780 5783 5786 5789 5792 5794 5796 5798 5800 5801 5802 5803 5804 5805 5805 5806 5806 5805 5805 5804 5803 5802 5800 5798 5796 5793 5790 5787 5784 5781 5778 5775 5772 5768 5765 5761 5757 5753
5752 5756 5760 5764 5768 5771 5775 5778 5781 5784 5786 5789 5790 5792 5793 5795 5796 5797 5798 5798 5798 5799 5798 5798 5797 5796 5795 5793 5791 5789 5786 5783 5780 5777 5773 5770 5767 5763 5760 5756 5752 5747 5743
5742 5746 5751 5755 5759 5763 5766 5769 5772 5775 5778 5780 5782 5784 5785 5787 5788 5789 5790 5790 5791 5791 5791 5791 5790 5788 5787 5785 5784 5782 5780 5777 5773 5770 5766 5762 5758 5755 5750 5746 5742 5738 5733
5732 5737 5741 5745 5750 5753 5757 5760 5763 5766 5769 5772 5773 5776 5777 5779 5780 5781 5782 5782 5783 5783 5783 5783 5782 5781 5779 5777 5775 5774 5771 5769 5766 5762 5758 5754 5750 5745 5741 5737 5732 5728 5723
5722 5727 5731 5735 5740 5744 5748 5751 5754 5758 5761 5763 5765 5767 5769 5770 5772 5773 5773 5774 5775 5775 5775 5774 5774 5772 5771 5769 5767 5765 5763 5760 5758 5755 5751 5746 5741 5736 5732 5728 5723 5719 5714
5712 5716 5721 5725 5730 5734 5738 5742 5745 5748 5751 5754 5756 5758 5760 5762 5763 5764 5765 5766 5766 5767 5766 5766 5765 5764 5762 5761 5759 5756 5754 5751 5748 5745 5742 5738 5733 5728 5723 5719 5715 5710 5704
5702 5706 5711 5715 5720 5724 5728 5732 5735 5739 5741 5744 5747 5749 5751 5753 5754 5755 5756 5757 5757 5758 5758 5757 5756 5755 5754 5752 5750 5748 5745 5743 5740 5736 5733 5730 5725 5721 5715 5710 5706 5701 5695